Regional Weather Roundup
Issued by NWS

Home | Current Version | Previous Version | Graphics & Text | Print | Product List | Glossary On
Versions: 1 2 3 4 5 6 7 8 9 10 11 12 13 14 15 16 17 18 19 20 21 22 23 24 25 26 27 28 29 30 31 32 33 34 35 36 37 38 39 40 41 42 43 44 45 46 47 48 49 50
487
ASUS43 KFSD 190202
RWRSD

WEATHER ROUNDUP FOR SOUTH DAKOTA
NATIONAL WEATHER SERVICE SIOUX FALLS SD
900 PM CDT WED OCT 18 2017

NOTE: "FAIR" INDICATES FEW OR NO CLOUDS BELOW 12,000 FEET WITH NO
SIGNIFICANT WEATHER AND/OR OBSTRUCTIONS TO VISIBILITY.


SDZ001>005-009-010-012>017-190300-
NORTHWEST AND NORTH CENTRAL SOUTH DAKOTA

CITY           SKY/WX    TMP DP  RH WIND       PRES   REMARKS
BUFFALO          N/A     48  27  44 SE10      29.88F
FAITH            N/A     47  24  40 S13       29.97F
MOBRIDGE       CLOUDY    48  34  58 SE8       29.98S
$$

SDZ012>016-024>037-041>051-057-063-072>074-190300-
SOUTHWEST AND SOUTH CENTRAL SOUTH DAKOTA

CITY           SKY/WX    TMP DP  RH WIND       PRES   REMARKS
RAPID CTY ARPT CLEAR     51  28  41 SE6       29.99F
PIERRE         CLOUDY    46  29  51 CALM      30.01S
CUSTER         CLOUDY    50  23  34 SW6       30.08F
ELLSWORTH AFB  CLOUDY    58  27  31 S13       29.98S
PHILIP         CLOUDY    49  33  54 S8        30.00F
PINE RIDGE     CLEAR     60  30  32 S8        30.02F
SPEARFISH      FAIR      55  27  33 CALM      29.96F
WINNER         FAIR      49  33  54 S9        30.05F
$$

SDZ004>011-016>023-039-040-190300-
NORTHEAST SOUTH DAKOTA

CITY           SKY/WX    TMP DP  RH WIND       PRES   REMARKS
ABERDEEN       CLOUDY    40  29  64 S6        30.02R
WATERTOWN      CLOUDY    43  33  68 SW7       30.03S
BROOKINGS      CLEAR     49  30  48 CALM      30.05S
SISSETON         N/A     47  32  56 SW7       29.99S
$$

SDZ017-020-022-023-036>040-048>070-190300-
SOUTHEAST SOUTH DAKOTA

CITY           SKY/WX    TMP DP  RH WIND       PRES   REMARKS
SIOUX FALLS    PTCLDY    47  37  68 W5        30.05R
HURON          CLOUDY    48  32  53 S3        30.04S
CHAMBERLAIN    CLOUDY    50  32  50 CALM      30.05S
MITCHELL       CLEAR     48  34  58 S6        30.05S
YANKTON        CLEAR     48  36  63 NW6       30.06R
$$

ABBREVIATIONS USED IN REMARKS
   TC - TEMPERATURE IN CELSIUS
  WCI - WIND CHILL INDEX
   HX - HEAT INDEX
  VSB - VISIBILITY





USA.gov is the U.S. government's official web portal to all federal, state and local government web resources and services.